Weather History for Appleton, WI

Change the Weather History Date:

Monday, December 24, 2012

  Actual Average Record
Temperature  
Mean Temperature 19 °F -  
Max Temperature 23 °F 23 °F 45 °F (1955)
Min Temperature 15 °F 8 °F -16 °F (1983)
Degree Days  
Heating Degree Days 46    
Moisture  
Dew Point 14 °F    
Average Humidity 83    
Maximum Humidity 93    
Minimum Humidity 79    
Precipitation  
Precipitation 0.00 in - - ()
Sea Level Pressure  
Sea Level Pressure 30.01 in    
Wind  
Wind Speed 5 mph (North)    
Max Wind Speed 9 mph    
Max Gust Speed -    
Visibility 10 miles    
Events Snow    
Averages and records for this station are not official NWS values.
T = Trace of Precipitation, MM = Missing Value Source: NWS Daily Summary

Daily Weather History Graph

Daily Weather History Graph

Search for Another Location

Airport:

Trip Planner

Search our weather history database for the weather conditions in past years. The results will help you decide how hot, cold, wet, or windy it might be!

Date:

Astronomy

Dec. 24, 2012 Rise Set
Actual Time 7:28 AM CST 4:19 PM CST
Civil Twilight 6:54 AM CST 4:53 PM CST
Nautical Twilight 6:18 AM CST 5:29 PM CST
Astronomical Twilight 5:42 AM CST 6:05 PM CST
Moon 1:49 PM CST (12/24) 4:03 AM CST (12/24)
Length of Visible Light 9h 58m
Length of Day
8h 51m
Waxing Gibbous, 88% of the Moon is Illuminated
Dec 24
Waxing Gibbous
Dec 28
Full
Jan 4
Last Quarter
Jan 11
New
Jan 18
First Quarter

Hourly Weather History & Observations

Time (CST) Temp. Windchill Dew Point Humidity Pressure Visibility Wind Dir Wind Speed Gust Speed Precip Events Conditions
12:15 AM 17.6 °F 12.3 °F 12.2 °F 79% 30.01 in 10.0 mi North 3.5 mph - N/A   Clear
12:35 AM 17.6 °F 12.3 °F 12.2 °F 79% 30.00 in 10.0 mi North 3.5 mph - N/A   Clear
12:55 AM 17.6 °F 12.3 °F 12.2 °F 79% 30.00 in 10.0 mi North 3.5 mph - N/A   Clear
1:15 AM 17.6 °F 9.3 °F 12.2 °F 79% 29.99 in 10.0 mi NNE 5.8 mph - N/A   Clear
1:35 AM 17.6 °F 9.3 °F 12.2 °F 79% 29.98 in 10.0 mi NNE 5.8 mph - N/A   Scattered Clouds
1:55 AM 17.6 °F 10.7 °F 12.2 °F 79% 29.98 in 10.0 mi NNE 4.6 mph - N/A   Clear
2:15 AM 17.6 °F 9.3 °F 12.2 °F 79% 29.97 in 10.0 mi NE 5.8 mph - N/A   Clear
2:35 AM 17.6 °F 10.7 °F 12.2 °F 79% 29.97 in 10.0 mi NE 4.6 mph - N/A   Scattered Clouds
2:55 AM 17.6 °F 10.7 °F 12.2 °F 79% 29.97 in 10.0 mi NE 4.6 mph - N/A   Scattered Clouds
3:15 AM 17.6 °F 9.3 °F 12.2 °F 79% 29.96 in 10.0 mi NE 5.8 mph - N/A   Mostly Cloudy
3:35 AM 17.6 °F 12.3 °F 12.2 °F 79% 29.96 in 10.0 mi NNE 3.5 mph - N/A   Overcast
3:55 AM 17.6 °F 12.3 °F 12.2 °F 79% 29.95 in 10.0 mi NE 3.5 mph - N/A   Mostly Cloudy
5:20 AM 15.8 °F 10.2 °F 12.2 °F 86% 29.96 in 10.0 mi NNW 3.5 mph - N/A   Overcast
5:45 AM 17.6 °F 10.7 °F 12.2 °F 79% 29.97 in 10.0 mi North 4.6 mph - N/A   Overcast
6:45 AM 17.6 °F 9.3 °F 12.2 °F 79% 29.97 in 10.0 mi North 5.8 mph - N/A   Overcast
7:45 AM 17.6 °F 8.2 °F 12.2 °F 79% 29.96 in 10.0 mi North 6.9 mph - N/A   Overcast
8:45 AM 17.6 °F 7.3 °F 12.2 °F 79% 29.96 in 10.0 mi North 8.1 mph - N/A   Overcast
9:45 AM 17.6 °F 6.4 °F 14.0 °F 86% 29.96 in 10.0 mi North 9.2 mph - N/A   Overcast
10:45 AM 19.4 °F 8.6 °F 15.8 °F 86% 29.95 in 10.0 mi North 9.2 mph - N/A   Overcast
11:45 AM 21.2 °F 12.6 °F 17.6 °F 86% 29.95 in 10.0 mi North 6.9 mph - N/A   Overcast
12:45 PM 21.2 °F 10.9 °F 17.6 °F 86% 29.94 in 4.0 mi North 9.2 mph - N/A Snow Light Snow
1:45 PM 23.0 °F 13.9 °F 19.4 °F 86% 29.95 in 10.0 mi NNW 8.1 mph - N/A   Mostly Cloudy
2:45 PM 21.2 °F 11.7 °F 17.6 °F 86% 29.96 in 10.0 mi North 8.1 mph - N/A   Mostly Cloudy
4:45 PM 21.2 °F 14.9 °F 17.6 °F 86% 30.00 in 10.0 mi NW 4.6 mph - N/A   Mostly Cloudy
6:45 PM 21.2 °F 13.6 °F 17.6 °F 86% 30.04 in 10.0 mi WNW 5.8 mph - N/A   Mostly Cloudy
8:45 PM 19.4 °F 11.5 °F 15.8 °F 86% 30.07 in 10.0 mi NW 5.8 mph - N/A   Mostly Cloudy
9:55 PM 19.4 °F 12.8 °F 15.8 °F 86% 30.09 in 10.0 mi WNW 4.6 mph - N/A   Mostly Cloudy
10:15 PM 19.4 °F 11.5 °F 17.6 °F 93% 30.10 in 10.0 mi WNW 5.8 mph - N/A   Overcast
10:35 PM 19.4 °F 11.5 °F 15.8 °F 86% 30.11 in 10.0 mi NW 5.8 mph - N/A   Overcast
10:45 PM 17.6 °F 9.3 °F 15.8 °F 93% 30.11 in 10.0 mi NW 5.8 mph - N/A   Mostly Cloudy
10:55 PM 21.2 °F 14.9 °F 15.8 °F 80% 30.11 in 10.0 mi NNW 4.6 mph - N/A   Overcast
11:15 PM 19.4 °F 12.8 °F 15.8 °F 86% 30.12 in 10.0 mi NW 4.6 mph - N/A   Mostly Cloudy
11:35 PM 19.4 °F 10.4 °F 15.8 °F 86% 30.13 in 10.0 mi WNW 6.9 mph - N/A   Overcast
11:55 PM 19.4 °F 11.5 °F 17.6 °F 93% 30.12 in 10.0 mi NW 5.8 mph - N/A   Overcast